Cloud_Cover
0 4 5 5 0 5 5 5 5 4 4 0 0 0 0 0 5 46 55 52 26 99 85 15 97 65 33 10 8 5 96 80 29 38 90 92 78 100 99 96 100 37 5 48
0 0 5 5 0 4 5 5 5 2 1 0 5 3 0 0 1 30 42 5 5 7 7 4 6 27 42 5 7 25 89 11 6 9 7 66 52 35 100 100 58 100 67 20
0 0 5 5 2 0 5 5 5 4 53 2 1 4 0 0 0 26 97 6 5 2 0 3 4 2 5 5 93 5 62 72 100 6 9 38 36 26 65 12 34 5 24 30
0 0 4 5 1 0 5 5 13 23 4 0 4 5 0 0 0 0 18 53 5 100 16 3 5 4 5 5 5 5 98 100 44 42 63 5 96 81 50 58 80 5 5 18
0 0 4 5 0 4 3 0 4 5 3 1 4 5 0 0 0 0 3 14 5 7 99 9 3 5 20 12 57 18 14 13 5 5 5 5 30 17 99 73 80 98 58 38
0 0 0 0 2 4 5 5 9 5 36 20 32 19 0 0 0 0 0 4 4 4 66 81 23 2 4 25 67 31 6 7 15 29 5 9 23 64 12 38 100 100 100 93
0 0 0 0 0 3 5 5 5 62 37 20 93 68 0 0 0 0 0 0 0 5 56 56 99 6 0 0 62 100 100 100 80 92 63 23 72 67 5 72 100 100 100 96
0 0 0 0 0 0 5 5 5 29 100 76 100 100 76 0 3 5 0 5 10 3 5 27 89 10 7 2 5 87 100 100 100 100 100 87 57 43 63 48 60 100 100 100
0 0 0 0 0 0 0 3 0 0 71 8 50 100 100 14 0 4 0 7 5 5 1 0 0 0 5 21 47 94 84 100 100 100 100 100 100 90 100 22 69 28 32 40
0 0 0 0 0 2 2 0 0 5 52 29 26 100 70 100 11 0 2 13 4 4 5 0 0 0 0 80 70 91 100 96 94 45 100 86 26 86 80 65 4 12 31 5
0 0 0 0 0 0 1 0 0 2 2 5 31 62 0 84 87 2 4 5 5 5 0 0 0 0 0 12 100 100 100 100 100 79 49 12 5 4 6 3 5 5 5 5
0 0 0 0 0 0 0 0 0 5 2 0 0 0 0 0 88 22 0 5 0 5 4 0 0 0 0 2 89 100 100 100 100 45 84 66 79 20 2 0 5 68 77 38
0 0 0 0 0 0 0 0 3 5 5 0 0 0 0 0 8 1 0 39 2 0 3 0 0 0 0 5 98 100 100 100 92 100 86 68 5 5 3 4 5 6 34 1
0 0 0 0 0 0 0 0 4 28 14 0 0 0 0 0 0 0 10 3 6 2 5 0 0 0 0 1 17 90 100 100 100 100 100 100 100 50 5 5 9 12 6 0
0 0 0 0 0 0 0 0 22 86 72 1 0 0 0 0 2 45 100 4 0 0 36 45 5 8 11 15 36 11 42 100 100 100 100 100 100 10 42 5 30 34 17 7
0 0 0 0 0 0 0 0 0 5 5 0 0 0 0 0 0 98 90 99 14 0 0 34 94 5 1 13 22 5 25 100 100 100 100 52 9 5 5 5 5 5 76 42
0 0 0 1 5 0 0 0 0 4 5 1 0 0 0 0 0 0 37 8 5 0 0 0 0 0 0 0 22 12 77 100 100 100 100 4 5 8 7 1 2 0 2 4
1 2 5 4 2 0 0 0 0 0 0 0 0 0 0 0 0 0 16 0 4 0 5 1 0 0 0 1 93 15 76 100 100 100 31 1 2 18 3 0 5 4 3 2
5 1 0 0 4 0 0 0 0 0 0 1 0 0 0 0 0 0 5 3 0 42 4 5 5 0 0 27 100 100 100 98 100 100 4 1 4 9 16 5 83 74 40 5
0 0 0 0 0 0 0 0 0 0 0 0 0 0 0 0 0 56 73 100 91 100 36 5 5 4 0 79 100 100 99 99 100 100 8 27 26 19 34 32 6 100 68 42
5 5 5 0 0 0 0 5 5 3 0 0 0 0 0 0 0 9 71 72 99 95 96 88 22 0 0 22 100 100 100 100 60 55 99 100 74 25 61 72 87 97 20 3
4 5 5 4 0 0 0 0 0 0 0 0 0 0 0 1 0 0 0 2 18 38 16 9 5 26 5 100 100 100 100 100 99 100 100 70 90 55 67 66 100 23 19 1
5 5 3 0 0 0 0 0 0 0 3 5 0 0 0 0 0 20 1 2 0 4 4 5 5 5 5 100 100 100 100 100 100 100 100 100 100 100 100 100 100 5 0 0
0 0 0 0 0 0 0 0 0 0 5 19 4 4 4 0 0 21 5 41 85 2 3 5 29 97 100 99 100 100 100 100 100 100 100 99 98 100 100 94 5 5 1 0
0 0 0 0 0 0 0 1 58 100 74 50 5 5 5 4 2 0 3 4 3 38 100 100 100 100 100 95 96 100 93 100 100 86 27 6 6 18 63 95 14 5 0 0
0 0 0 0 2 89 99 76 100 98 100 18 97 100 100 90 4 5 6 31 77 100 100 100 65 81 98 100 97 100 100 100 73 98 85 85 98 100 52 20 5 12 4 0